TimeEDT,TemperatureF,Dew PointF,Humidity,Sea Level PressureIn,VisibilityMPH,Wind Direction,Wind SpeedMPH,Gust SpeedMPH,PrecipitationIn,Events,Conditions,WindDirDegrees,DateUTC
12:58 AM,56.8,50.9,80,30.26,10.0,SSE,19.6,-,N/A,,Clear,150,2013-10-13 04:58:00
1:58 AM,56.1,50.2,80,30.26,10.0,SSE,20.7,26.5,N/A,,Clear,150,2013-10-13 05:58:00
2:58 AM,55.2,50.0,83,30.26,10.0,SSE,19.6,-,N/A,,Clear,150,2013-10-13 06:58:00
3:58 AM,54.5,49.6,84,30.26,10.0,SSE,18.4,26.5,N/A,,Clear,150,2013-10-13 07:58:00
4:58 AM,53.6,49.1,85,30.26,10.0,SSE,20.7,29.9,N/A,,Clear,160,2013-10-13 08:58:00
5:58 AM,52.7,48.6,86,30.29,10.0,SSE,18.4,-,N/A,,Clear,160,2013-10-13 09:58:00
6:58 AM,52.0,48.2,87,30.32,10.0,South,10.4,-,N/A,,Clear,190,2013-10-13 10:58:00
7:58 AM,52.7,48.4,85,30.32,10.0,SSE,16.1,-,N/A,,Clear,160,2013-10-13 11:58:00
8:58 AM,55.4,48.7,78,30.32,10.0,SSE,17.3,-,N/A,,Clear,160,2013-10-13 12:58:00
9:58 AM,59.4,50.0,71,30.32,10.0,South,15.0,-,N/A,,Clear,170,2013-10-13 13:58:00
10:58 AM,62.6,51.1,66,30.32,10.0,SSE,11.5,-,N/A,,Clear,150,2013-10-13 14:58:00
11:58 AM,66.2,52.2,61,30.31,10.0,SSE,10.4,-,N/A,,Clear,150,2013-10-13 15:58:00
12:58 PM,68.5,53.1,58,30.29,10.0,SE,9.2,-,N/A,,Overcast,130,2013-10-13 16:58:00
1:58 PM,69.1,54.1,59,30.27,10.0,SSE,6.9,-,N/A,,Overcast,150,2013-10-13 17:58:00
2:58 PM,69.4,54.9,60,30.26,10.0,West,1.2,-,N/A,,Overcast,270,2013-10-13 18:58:00
3:03 PM,69.8,55.4,60,30.26,10.0,SSE,3.5,-,N/A,,Light Drizzle,150,2013-10-13 19:03:00
3:13 PM,69.8,55.4,60,30.25,10.0,Variable,2.3,-,N/A,,Overcast,0,2013-10-13 19:13:00
3:58 PM,69.8,55.0,59,30.25,10.0,Variable,3.5,-,0.00,,Overcast,0,2013-10-13 19:58:00
4:58 PM,70.3,55.8,60,30.25,10.0,SSE,6.9,-,N/A,,Overcast,160,2013-10-13 20:58:00
5:58 PM,66.9,55.4,66,30.26,10.0,SW,4.6,-,N/A,,Mostly Cloudy,230,2013-10-13 21:58:00
6:58 PM,65.8,55.4,69,30.27,10.0,SSW,4.6,-,N/A,,Overcast,210,2013-10-13 22:58:00
7:58 PM,65.7,54.9,68,30.27,10.0,SE,5.8,-,N/A,,Mostly Cloudy,140,2013-10-13 23:58:00
8:58 PM,64.8,54.9,70,30.27,10.0,SSE,6.9,-,N/A,,Overcast,150,2013-10-14 00:58:00
9:53 PM,64.4,55.4,73,30.26,10.0,South,9.2,-,N/A,,Light Drizzle,170,2013-10-14 01:53:00
9:58 PM,64.0,55.4,73,30.26,10.0,South,9.2,-,0.00,,Light Drizzle,170,2013-10-14 01:58:00
10:07 PM,62.6,57.2,82,30.26,10.0,SSE,6.9,-,N/A,,Overcast,150,2013-10-14 02:07:00
10:16 PM,62.6,57.2,82,30.27,10.0,SSE,5.8,-,N/A,,Light Drizzle,160,2013-10-14 02:16:00
10:25 PM,62.6,57.2,82,30.27,10.0,SSE,5.8,-,N/A,,Overcast,160,2013-10-14 02:25:00
10:58 PM,61.9,56.3,82,30.26,10.0,SSE,8.1,-,0.00,,Overcast,150,2013-10-14 02:58:00
11:58 PM,61.9,54.7,77,30.26,10.0,SSE,6.9,-,N/A,,Overcast,160,2013-10-14 03:58:00